Location: Newark
(46.7636°N, 1.8358°W)
Time: 02:54:45
(UTC+00:00)

Vanguard 2 Rocket - Pass Details

Date: 21 October 2019
Orbit: 554 x 3326 km, 32.9° (Epoch: 22 November)

Event Time Altitude Azimuth Distance (km) Brightness Sun altitude
Rises 11:25:51 0° 256° (WSW) 6,951 11.5 32.3°
Reaches altitude 10° 11:30:25 10° 252° (WSW) 6,115 11.3 32.3°
Maximum altitude 11:49:24 52° 185° (S) 3,736 11.7 32.5°
Drops below altitude 10° 12:05:30 10° 115° (ESE) 5,263 11.1 32.5°
Sets 12:09:05 0° 111° (ESE) 5,966 11.3 32.4°
